Flag for Germany Weather past 2 weeks in Andernach, Rhineland-Palatinate, Germany

Now
72 °F

Mild.


Feels Like: 76 °F
Forecast: 56 / 77 °F
Wind: 7 mph from Northeast

Location: Buechel

Current Time: Jul 26, 2014 at 3:57:05 PM

Latest Report: Jul 26, 2014 at 3:20 PM


Visibility: N/A

Pressure: 29.95 "Hg

Humidity: 61%

Dew point: 57 °F

Location of AndernachLocation

Historic Weather in Andernach — Graph

°F

Andernach temperature yesterday

Maximum temperature yesterday: 72 °F (at 2:20 PM)
Minimum temperature yesterday: 55 °F (at 5:20 AM)
Average temperature yesterday: 63 °F

Past Weeks' High & Low Weather Summary

 TemperatureHumidityPressure
High86 °F (Jul 18, 4:20 PM)100% (Jul 22, 1:20 AM)30.21 "Hg (Jul 22, 1:20 AM)
Low54 °F (Jul 14, 5:20 AM)29% (Jul 18, 5:20 PM)29.86 "Hg (Jul 14, 4:20 AM)
Average68 °F66%30.03 "Hg
* Reported Jul 11 2:20 PM — Jul 26 2:20 PM, Andernach, Weather by CustomWeather, © 2014

Note: Actual official high and low records may vary slightly from our data, if they occured in-between our weather recording intervals... More about our weather records

Advertising

Andernach weather history for previous 24 hours

 ConditionsComfort  
Time TempWeatherWind HumidityBarometerVisibility
2:20 PM
Jul 26
73 °FMild.6 mph57%29.95 "HgN/A
1:20 PM68 °FMild.5 mph73%29.95 "HgN/A
12:20 PM68 °FMild.7 mph73%29.98 "HgN/A
11:20 AM66 °FMild.7 mph83%29.98 "HgN/A
10:20 AM63 °FMild.7 mph88%29.98 "Hg5 mi
9:20 AM64 °FMild.3 mph83%29.95 "HgN/A
8:20 AM61 °FCool.3 mph88%29.95 "HgN/A
7:20 AM59 °FCool.3 mph88%29.95 "Hg3 mi
6:20 AM55 °FCool.5 mph100%29.92 "Hg0 mi
5:20 AM55 °FCool.5 mph94%29.92 "Hg0 mi
4:20 AM57 °FCool.5 mph100%29.92 "Hg1 mi
3:20 AM57 °FCool.3 mph94%29.95 "Hg0 mi
2:20 AM59 °FCool.3 mph88%29.95 "Hg3 mi
1:20 AM61 °FCool.7 mph88%29.95 "Hg3 mi
12:20 AM61 °FCool.6 mph88%29.92 "Hg4 mi
11:20 PM
Jul 25
61 °FCool.6 mph88%29.95 "Hg6 mi
10:20 PM61 °FCool.5 mph88%29.95 "HgN/A
9:20 PM63 °FMild.5 mph83%29.92 "HgN/A
8:20 PM66 °FMild.5 mph73%29.92 "HgN/A
7:20 PM66 °FMild.3 mph68%29.92 "HgN/A
6:20 PM66 °FMild.6 mph68%29.92 "HgN/A
5:20 PM63 °FMild.6 mph77%29.95 "HgN/A
4:20 PM63 °FMild.9 mph77%29.95 "HgN/A
3:20 PM68 °FMild.7 mph64%29.95 "Hg6 mi
Weather by CustomWeather, © 2014

See weather overviewHow to use our weather pages